Wilkes Barre Scranton International Airport
KAVP : now visible

Airfield :











YOU CAN JOIN US ON...

 
LOGIN :

Register | Disclaimer

   EN    FR    IT 

 









Legend :    VFR   Marginal VFR   IFR   Intensive IFR   Very Intensive IFR
Visi :
Ceiling :
>= 8 km
>= 3000ft
5 to 8 km
1000 to 3000 ft
1500m to 5 km
500 to 1000 ft
800 to 1500m
200 to 500 ft
< 800m
< 200 ft
Symbols :   Thunderstorms  Fog  Heavy snow  Heavy precipitations  Wind > 20 kt






- Airport Elevation : 962 ft
- IATA code : AVP


KAVP - Wilkes Barre Scranton International

CURRENT METAR :
  • 170254Z 22005KT 10SM BKN034 02/M04 A3008 RMK AO2 SLP193 T00221039 51005 $

EXPIRED METARs :
  • 170154Z 00000KT 10SM BKN042 OVC100 02/M04 A3008 RMK AO2 SLP193 T00171039 $
  • 170054Z 23003KT 10SM OVC110 02/M04 A3007 RMK AO2 SLP191 T00221039 $

TAF KAVP
Valid from the 17 at 00:00 until the 18 at 00:00 UTC


162321Z 1700/1724 25004KT P6SM BKN050
FM170600 33004KT P6SM SCT050



MET'MAP, your aeronautical weather chart ! - Copyright ORBIFLY December 2007 - Disclaimer

ORBIFLY MET'MAP TEAM :

Programming & Development : Alexandra Zaïnal
Concept & original design : Baudouin d'Aumeries
Assistance for programming : Marc-Olivier Méhu
Technical & hardware support : Manuel Goepfert

Contact : metmap@orbifly.com




SOURCES & CREDITS :

   NOAA       Earth
Advisory